Miscellaneous Local Product
Issued by NWS North Platte, NE

Home | Current Version | Previous Version | Text Only | Print | Product List | Glossary On
Versions: 1 2 3 4 5 6 7 8 9 10 11 12 13 14 15 16 17 18 19 20 21 22 23 24 25 26 27 28 29 30 31 32 33 34 35 36 37 38 39 40 41 42 43 44 45 46 47 48 49 50
000
AXUS43 KLBF 060710
MISLBF


WESTERN AND NORTH CENTRAL NEBRASKA HOURLY WEATHER ROUNDUP
NATIONAL WEATHER SERVICE NORTH PLATTE NE
100 AM CST FRI MAR 06 2015

***STATIONS NOT REPORTING VARIABLES SUCH AS SKY/WEATHER OR
PRESSURE ARE PROVIDED BY THE NEBRASKA DEPARTMENT OF
ROADS...RAWS...AND APRS NETWORKS...AND ARE NOT UNDER
NATIONAL WEATHER SERVICE QUALITY CONTROL***

...OBSERVATIONS IN AND NEAR THE EASTERN PANHANDLE OF NEBRASKA...

CITY           SKY/WX    TMP DP  RH WIND       PRES   REMARKS
PINE RIDGE     PTCLDY    25  18  74 SW6       30.16F WCI  18
CHADRON        MOCLDY    29  21  72 W9        30.19S WCI  20
ALLIANCE       PTCLDY    18  15  88 W7        30.19F WCI   9
SIDNEY         PTCLDY    30  18  60 W12       30.23F WCI  20
WHITECLAY        N/A     24  17  75 SE7         N/A  WCI  16
CRESCENT LAKE    N/A     27  15  60 W6          N/A  WCI  21
LISCO            N/A     26  16  66 W5          N/A  WCI  20
BIG SPRINGS      N/A     29  22  74 SW7         N/A  WCI  22
LEWELLEN         N/A     15   8  75 CALM        N/A
$$

...OBSERVATIONS IN NORTH CENTRAL NEBRASKA...

CITY           SKY/WX    TMP DP  RH WIND       PRES   REMARKS
VALENTINE      CLEAR     24  19  81 SW7       30.15F WCI  16
THEDFORD       CLEAR     25  16  68 W5        30.19S WCI  19
AINSWORTH      CLEAR     25  18  76 W9        30.15F WCI  15
O`NEILL        CLEAR     26  13  59 SW8       30.14F WCI  17
ORD            CLEAR     15   6  67 NW3       30.18S
BROKEN BOW     CLEAR     27  12  53 NW5       30.18F WCI  22
BROWNLEE         N/A     30  16  55 W6          N/A  WCI  24
SPRINGVIEW       N/A     20  15  80 CALM        N/A
BREWSTER         N/A     24  17  75 NW9         N/A  WCI  14
ROSE             N/A     30  21  69 SW6         N/A  WCI  24
NEWPORT          N/A     30  25  80 W9          N/A  WCI  22
SARGENT          N/A     22  11  63 CALM        N/A
COMSTOCK         N/A     30  12  47 W5          N/A  WCI  25
CHAMBERS         N/A     24   6  47 W3          N/A
EWING            N/A     24  10  53 SW3         N/A
$$

...OBSERVATIONS IN SOUTHWEST NEBRASKA AND FAR NORTHEAST COLORADO...

CITY           SKY/WX    TMP DP  RH WIND       PRES   REMARKS
WRAY           FAIR      24  20  82 W5        30.26S WCI  19
HOLYOKE        FAIR      30  21  69 W10       30.24S WCI  21
IMPERIAL         N/A     28  16  60 W8        30.24F WCI  20
OGALLALA       CLEAR     22  17  80 W5        30.22S WCI  16
NORTH PLATTE   CLEAR     18  10  71 NW7       30.22S WCI   9
MCCOOK         CLEAR     31  18  58 W12       30.24F WCI  22
LEXINGTON      CLEAR     21  13  72 NW9       30.21S WCI  11
PAXTON           N/A     23  15  73 CALM        N/A
BRADY            N/A     24  13  62 CALM        N/A
GOTHENBURG       N/A     28  13  54 W3          N/A
CALLAWAY         N/A     28  15  57 W9          N/A  WCI  19
$$

...NORTH PLATTE AREA...

CITY           SKY/WX    TMP DP  RH WIND       PRES   REMARKS
AIRPORT        CLEAR     18  10  71 NW7       30.22S WCI   9
DOWNTOWN         N/A     26  15  61 CALM        N/A
$$

...SOME WEATHER OBSERVATIONS FROM AROUND THE REGION...

CITY           SKY/WX    TMP DP  RH WIND       PRES   REMARKS
DENVER         MOCLDY    25  14  63 S10       30.23F WCI  15
LARAMIE        CLOUDY    26  12  55 SW13      30.25S WCI  15
CHEYENNE       CLOUDY    32  13  45 W6        30.22S WCI  26
SCOTTSBLUFF    MOCLDY    27  21  78 NW5       30.21F WCI  22
RAPID CITY     MOCLDY    30  16  56 W3        30.11F
PIERRE         PTCLDY    23  15  71 W7        30.10F WCI  15
WINNER         FAIR      32  17  54 SW8       30.13S WCI  25
SIOUX FALLS    CLEAR     22   8  55 S13       30.12F WCI  10
OMAHA          CLOUDY    26  11  52 S14       30.29F WCI  14
GRAND ISLAND   CLEAR     28   8  43 SW12      30.20F WCI  18
KANSAS CITY    CLEAR     23  12  62 S13       30.40F WCI  11
WICHITA        PTCLDY    32  19  58 S16       30.39F WCI  21
HAYS           CLEAR     28  10  47 SW9       30.29S WCI  20
LIBERAL        CLEAR     28  18  64 S8        30.33S WCI  20
GOODLAND       CLEAR     26  21  81 W12       30.26F WCI  16
$$



USA.gov is the U.S. government's official web portal to all federal, state and local government web resources and services.